Regional Weather Roundup
Issued by NWS Charleston, WV

Home | Current Version | Previous Version | Text Only | Print | Product List | Glossary Off
Versions: 1 2 3 4 5 6 7 8 9 10 11 12 13 14 15 16 17 18 19 20 21 22 23 24 25 26 27 28 29 30 31 32 33 34 35 36 37 38 39 40 41 42 43 44 45 46 47 48 49 50

000
ASUS41 KRLX 270010
RWRRLX
West Virginia Regional Weather Roundup
National Weather Service Charleston WV
800 PM EDT SUN APR 26 2015

Note: "fair" indicates few or no clouds below 12,000 feet with no
significant weather and/or obstructions to visibility.

WVZ003-270100-
Northern Panhandle of West Virginia

CITY           SKY/WX    TMP DP  RH WIND       PRES   REMARKS
WHEELING       CLEAR     53  27  36 N13       29.79R
$$

WVZ009-270100-
Northwest West Virginia

CITY           SKY/WX    TMP DP  RH WIND       PRES   REMARKS
PARKERSBURG    CLEAR     58  27  30 N8        29.80R
$$

WVZ006-270100-
Western West Virginia

CITY           SKY/WX    TMP DP  RH WIND       PRES   REMARKS
HUNTINGTON     CLEAR     58  32  37 NW7       29.78R
$$

WVZ015-270100-
West Central West Virginia

CITY           SKY/WX    TMP DP  RH WIND       PRES   REMARKS
CHARLESTON     PTCLDY    59  29  31 NW8       29.76R
$$

WVZ022-031-270100-
North Central West Virginia

CITY           SKY/WX    TMP DP  RH WIND       PRES   REMARKS
CLARKSBURG     MOCLDY    54  30  40 N10       29.75R
MORGANTOWN     PTCLDY    56  26  31 N9        29.76R
$$

WVZ025-035-042-045-270100-
Southern West Virginia

CITY           SKY/WX    TMP DP  RH WIND       PRES   REMARKS
BECKLEY        CLEAR     50  39  66 W6        29.76R
LOGAN            N/A     57  32  38 CALM      29.74R
BLUEFIELD      CLEAR     47  39  74 W3        29.78R
LEWISBURG      CLEAR     49  42  75 SW6       29.74S
$$

WVZ047-270100-
Northern Mountains of West Virginia

CITY           SKY/WX    TMP DP  RH WIND       PRES   REMARKS
ELKINS         CLEAR     53  27  36 N5        29.74R
$$

WVZ052-270100-
Eastern Panhandle of West Virginia

CITY           SKY/WX    TMP DP  RH WIND       PRES   REMARKS
MARTINSBURG    PTCLDY    57  29  34 NE3       29.70R
PETERSBURG     PTCLDY    58  24  27 NW8       29.73R
$$



USA.gov is the U.S. government's official web portal to all federal, state and local government web resources and services.